FW6327 Weather Reports


time (UTC)temp
C
wind
direction
speed
KPH
gust
KPH
rain 1hr
cm
rain 24hr
cm
rain mn
cm
humidity
%
barometer
mb
20260508171556 15 152 8.0 25.7 0.00 2.21 0.03 63 998.9
20260508170055 15 155 9.7 32.2 0.00 2.21 0.03 60 998.9
20260508164558 16 142 6.4 14.5 0.00 2.24 0.03 58 998.6
20260508163047 15 351 3.2 12.9 0.00 2.24 0.03 55 998.6
20260508161545 15 65 1.6 8.0 0.00 2.24 0.03 53 998.8
20260508160042 15 91 0.0 6.4 0.00 2.24 0.03 52 998.7
20260508154539 15 75 8.0 14.5 0.00 2.24 0.03 53 998.8
20260508153037 15 80 3.2 9.7 0.00 2.24 0.03 55 998.9
20260508151530 15 77 6.4 14.5 0.00 2.24 0.03 53 999.0
20260508150029 15 160 4.8 14.5 0.00 2.24 0.03 56 999.3
20260508144521 15 55 4.8 8.0 0.00 2.24 0.03 60 999.4
20260508143018 14 28 9.7 16.1 0.00 2.24 0.03 60 999.7
20260508141516 14 11 6.4 12.9 0.00 2.24 0.03 61 999.8
20260508140013 14 170 4.8 8.0 0.00 2.24 0.03 63 1000.1
20260508134511 13 91 3.2 14.5 0.00 2.24 0.03 65 1000.3
20260508133005 13 94 4.8 16.1 0.00 2.24 0.03 70 1000.1
20260508131559 12 5 4.8 11.3 0.00 2.24 0.03 72 1000.0
20260508130054 12 355 3.2 14.5 0.00 2.24 0.03 73 1000.0
20260508124549 11 26 3.2 12.9 0.00 2.24 0.03 78 999.8
20260508123046 11 24 4.8 12.9 0.00 2.24 0.03 82 999.9
20260508121545 10 92 1.6 3.2 0.00 2.24 0.03 89 1000.1
20260508120041 9 92 1.6 4.8 0.00 2.24 0.03 93 1000.2
20260508114530 8 90 0.0 4.8 0.00 2.24 0.03 94 1000.4
20260508113030 7 93 1.6 4.8 0.00 2.24 0.03 94 1000.5
20260508111530 6 88 1.6 4.8 0.00 2.24 0.03 94 1000.4
20260508110024 6 89 0.0 3.2 0.00 2.24 0.03 94 1001.0
20260508104522 5 89 0.0 3.2 0.00 2.24 0.03 94 1001.4
20260508103024 5 89 0.0 0.0 0.00 2.24 0.03 94 1000.9
20260508101518 4 89 0.0 0.0 0.00 2.24 0.03 94 1001.1
20260508100015 4 89 0.0 1.6 0.00 2.24 0.03 94 1001.1
20260508094512 4 90 0.0 1.6 0.00 2.24 0.03 94 1000.6
20260508093010 3 90 0.0 3.2 0.00 2.24 0.03 94 1000.4
20260508091507 3 90 0.0 3.2 0.00 2.24 0.03 94 1000.3
20260508090005 3 90 0.0 3.2 0.00 2.24 0.03 93 1000.4
20260508084504 3 90 0.0 3.2 0.00 2.24 0.03 93 1000.0
20260508083109 4 90 0.0 1.6 0.00 2.24 0.03 93 999.7
20260508081604 4 90 0.0 1.6 0.00 2.24 0.03 93 999.6
20260508080104 4 90 0.0 3.2 0.00 2.24 0.03 93 999.5
20260508074550 5 90 0.0 1.6 0.00 2.24 0.03 93 999.6
20260508073051 5 90 0.0 0.0 0.00 2.24 0.03 93 999.8
20260508071541 5 90 0.0 0.0 0.00 2.24 0.03 93 999.9
20260508070038 5 90 0.0 1.6 0.00 2.24 0.03 93 1000.0
20260508064534 6 90 1.6 3.2 0.00 2.24 0.03 93 999.7
20260508063031 6 90 0.0 3.2 0.00 2.24 0.03 93 999.9
20260508061529 6 90 0.0 1.6 0.00 2.24 0.03 93 1000.0
20260508060024 6 90 0.0 1.6 0.00 2.24 0.03 94 999.8
20260508054522 6 90 0.0 3.2 0.00 2.24 0.03 93 1000.0
20260508053019 6 90 1.6 3.2 0.00 2.24 0.03 93 1000.3
20260508051526 6 90 0.0 0.0 0.00 2.24 0.03 93 1000.2
20260508050011 7 90 1.6 3.2 0.00 2.24 0.03 93 1000.1
20260508044511 7 90 0.0 0.0 0.00 2.24 0.03 93 1000.1
20260508043014 7 90 0.0 0.0 0.00 2.24 0.03 93 1000.1
20260508041505 7 90 0.0 1.6 0.00 2.24 0.03 93 1000.1
20260508034559 7 90 0.0 0.0 0.03 2.24 0.03 93 1000.4
20260508033058 8 90 0.0 0.0 0.03 2.24 0.03 93 1000.4
20260508031548 8 90 0.0 0.0 0.03 2.24 0.03 93 1000.4
20260508030044 8 90 0.0 0.0 0.00 2.21 0.00 93 1000.6
20260508024551 8 90 0.0 1.6 0.00 2.21 2.21 93 1000.5
20260508023038 8 90 0.0 1.6 0.00 2.21 2.21 93 1000.6
20260508021535 8 90 0.0 3.2 0.00 2.21 2.21 93 1000.7
20260508020038 8 90 0.0 1.6 0.00 2.21 2.21 93 1000.7
20260508014530 8 90 0.0 3.2 0.03 2.21 2.21 93 1000.7
20260508013028 8 90 1.6 8.0 0.03 2.21 2.21 93 1000.6
20260508011525 9 58 3.2 6.4 0.03 2.21 2.21 93 1000.5
20260508010021 10 217 0.0 1.6 0.05 2.21 2.21 93 1000.4
20260508004517 10 217 0.0 3.2 0.05 2.21 2.21 93 1000.5
20260508003015 10 217 0.0 4.8 0.05 2.21 2.21 93 1000.5
20260508001512 10 217 1.6 6.4 0.05 2.21 2.21 93 1000.5
20260508000011 10 232 4.8 12.9 0.03 2.18 2.18 93 1000.5
20260507234508 10 227 6.4 12.9 0.00 2.16 2.16 92 1000.5
20260507233005 10 208 4.8 8.0 0.00 2.16 2.16 92 999.9
20260507231502 10 182 4.8 11.3 0.00 2.16 2.16 92 999.9
20260507230003 11 190 1.6 4.8 0.00 2.16 2.16 92 999.9
20260507224504 11 190 0.0 3.2 0.00 2.16 2.16 92 999.9
20260507223100 11 190 0.0 0.0 0.00 2.16 2.16 92 1000.0
20260507221557 11 190 0.0 4.8 0.00 2.16 2.16 92 999.9
20260507220055 11 190 1.6 8.0 0.00 2.16 2.16 92 1000.0
20260507214554 11 161 1.6 4.8 0.00 2.16 2.16 92 1000.1
20260507213053 11 161 0.0 4.8 0.03 2.16 2.16 92 1000.0
20260507211550 11 161 1.6 8.0 0.03 2.16 2.16 92 1000.3
20260507210049 11 186 1.6 12.9 0.03 2.16 2.16 92 1000.3
20260507204552 11 211 0.0 9.7 0.05 2.13 2.13 92 999.9
20260507203047 11 241 4.8 9.7 0.20 2.13 2.13 93 999.9
20260507201544 10 225 0.0 3.2 0.33 2.13 2.13 93 999.6
20260507200038 10 225 0.0 3.2 0.41 2.13 2.13 93 1000.1
20260507194535 10 225 0.0 3.2 0.48 2.08 2.08 92 1000.5
20260507193031 10 226 0.0 4.8 0.51 1.93 1.93 92 1001.7
20260507191528 10 220 3.2 6.4 0.61 1.83 1.83 92 1002.2
20260507190027 10 233 0.0 9.7 0.71 1.75 1.75 91 1002.1
20260507184525 10 215 3.2 11.3 0.89 1.60 1.60 91 1002.5
20260507183026 10 237 3.2 12.9 1.19 1.42 1.42 91 1002.6
20260507181521 10 218 6.4 12.9 1.09 1.22 1.22 91 1002.8
20260507180018 11 210 11.3 24.1 0.97 0.99 0.99 90 1003.2
20260507174615 11 223 11.3 22.5 0.71 0.71 0.71 90 1003.2
20260507173025 11 219 11.3 17.7 0.20 0.20 0.20 90 1002.5